Flag for Canada Weather past 2 weeks in Laval, Quebec, Canada

Now
77 °F

Scattered clouds.


Feels Like: 78 °F
Forecast: 55 / 74 °F
Wind: 5 mph from Northeast

Location: Montreal / Mirabel

Current Time: Sep 3, 2015 at 8:01:26 PM

Latest Report: Sep 3, 2015 at 6:00 PM


Visibility: 45 mi

Pressure: 29.96 "Hg

Humidity: 44%

Dew point: 54 °F

Location of LavalLocation

Historic Weather in Laval — Graph

°F

Laval temperature yesterday

Maximum temperature yesterday: 73 °F (at 2:00 PM)
Minimum temperature yesterday: 66 °F (at 1:00 AM)
Average temperature yesterday: 69 °F

Past Weeks' High & Low Weather Summary

 TemperatureHumidityPressure
High84 °F (Aug 20, 4:00 PM)100% (Aug 21, 12:00 AM)30.18 "Hg (Aug 21, 12:00 AM)
Low54 °F (Aug 28, 5:00 AM)44% (Sep 3, 6:00 PM)29.78 "Hg (Aug 24, 4:00 PM)
Average68 °F81%29.99 "Hg
* Reported Aug 19 6:00 PM — Sep 3 6:00 PM, Laval, Weather by CustomWeather, © 2015

Note: Actual official high and low records may vary slightly from our data, if they occured in-between our weather recording intervals... More about our weather records

Advertising

Laval weather history for previous 24 hours

 ConditionsComfort  
Time TempWeatherWind HumidityBarometerVisibility
6:00 PM
Thu, Sep 3
77 °FScattered clouds.5 mph44%29.96 "Hg45 mi
5:00 PM81 °FScattered clouds.3 mph48%29.94 "Hg45 mi
4:00 PM82 °FBroken clouds.3 mph55%29.94 "Hg45 mi
3:00 PM79 °FBroken clouds.3 mph58%29.94 "Hg15 mi
2:00 PM81 °FBroken clouds.5 mph54%29.95 "Hg15 mi
1:00 PM79 °FPartly sunny.8 mph61%29.95 "Hg15 mi
12:00 PM79 °FPartly sunny.7 mph58%29.96 "Hg15 mi
11:00 AM77 °FPartly sunny.7 mph65%29.96 "Hg15 mi
10:00 AM75 °FPartly sunny.7 mph69%29.95 "Hg15 mi
9:00 AM72 °FPartly sunny.3 mph83%29.94 "Hg20 mi
8:00 AM66 °FFog.2 mph100%29.94 "Hg20 mi
7:00 AM64 °FPassing clouds.No wind94%29.91 "Hg10 mi
6:00 AM63 °FFog.2 mph100%29.89 "Hg5 mi
5:00 AM64 °FFog.No wind100%29.88 "Hg20 mi
4:00 AM64 °FPassing clouds.3 mph100%29.87 "Hg15 mi
3:00 AM66 °FPassing clouds.2 mph94%29.87 "Hg15 mi
2:00 AM70 °FPassing clouds.3 mph88%29.87 "Hg15 mi
1:00 AM70 °FPartly cloudy.3 mph94%29.88 "Hg15 mi
12:00 AM68 °FScattered showers. Partly cloudy.No wind100%29.89 "Hg15 mi
11:00 PM
Wed, Sep 2
70 °FPassing clouds.3 mph94%29.89 "Hg15 mi
10:00 PM70 °FPassing clouds.3 mph94%29.89 "Hg15 mi
9:00 PM70 °FPassing clouds.No wind94%29.89 "Hg10 mi
8:00 PM70 °FMostly cloudy.2 mph94%29.88 "Hg10 mi
Weather by CustomWeather, © 2015

See weather overviewHow to use our weather pages